• în Republica Moldova
  • Lista ţărilor
  • Pe 7 zile
  • Temperatura apei
  • Hartă satelitară
  • Meteo pe hartă
  • Widget-uri
  • user-avatar
    Intrare

    Meteo pe oră la Newcastle

    Astăzi, 22 August, Marţi

    Timp Temperatura Precipitaţii Vânt Presiune Umiditate
    00:00 +10°C° 0 mm 2 m/s 762 mmHg 67%
    01:00 +10°C° 0 mm 2 m/s 762 mmHg 67%
    02:00 +10°C° 0 mm 2 m/s 762 mmHg 67%
    03:00 +10°C° 0 mm 2 m/s 762 mmHg 67%
    04:00 +11°C° 0 mm 1 m/s 762 mmHg 61%
    05:00 +10°C° 0 mm 1 m/s 762 mmHg 64%
    06:00 +10°C° 0 mm 1 m/s 762 mmHg 67%
    07:00 +9°C° 0 mm 1 m/s 763 mmHg 69%
    08:00 +13°C° 0 mm 1 m/s 763 mmHg 60%
    09:00 +16°C° 0 mm 1 m/s 763 mmHg 51%
    10:00 +21°C° 0 mm 1 m/s 763 mmHg 41%
    11:00 +20°C° 0 mm 2 m/s 763 mmHg 39%
    12:00 +21°C° 0 mm 2 m/s 763 mmHg 37%
    13:00 +21°C° 0 mm 2 m/s 762 mmHg 35%
    14:00 +21°C° 0 mm 2 m/s 762 mmHg 39%
    15:00 +20°C° 0 mm 3 m/s 762 mmHg 43%
    16:00 +18°C° 0 mm 3 m/s 762 mmHg 50%
    17:00 +16°C° 0 mm 2 m/s 763 mmHg 60%
    18:00 +14°C° 0 mm 2 m/s 763 mmHg 70%
    19:00 +12°C° 0 mm 1 m/s 764 mmHg 80%
    20:00 +12°C° 0 mm 1 m/s 764 mmHg 82%
    21:00 +11°C° 0 mm 1 m/s 764 mmHg 84%
    22:00 +11°C° 0 mm 1 m/s 765 mmHg 86%
    23:00 +10°C° 0 mm 1 m/s 765 mmHg 87%

    Mâine, 23 August, Miercuri

    Timp Temperatura Precipitaţii Vânt Presiune Umiditate
    00:00 +10°C° 0 mm 1 m/s 765 mmHg 88%
    01:00 +10°C° 0 mm 1 m/s 764 mmHg 89%
    02:00 +9°C° 0 mm 1 m/s 764 mmHg 90%
    03:00 +9°C° 0 mm 1 m/s 764 mmHg 90%
    04:00 +9°C° 0 mm 1 m/s 764 mmHg 90%
    05:00 +9°C° 0 mm 1 m/s 764 mmHg 89%
    06:00 +8°C° 0 mm 2 m/s 764 mmHg 89%
    07:00 +8°C° 0 mm 2 m/s 765 mmHg 88%
    08:00 +12°C° 0 mm 2 m/s 764 mmHg 76%
    09:00 +16°C° 0 mm 2 m/s 764 mmHg 65%
    10:00 +19°C° 0 mm 2 m/s 764 mmHg 53%
    11:00 +21°C° 0 mm 2 m/s 763 mmHg 48%
    12:00 +22°C° 0 mm 3 m/s 762 mmHg 43%
    13:00 +25°C° 0 mm 3 m/s 762 mmHg 37%
    14:00 +24°C° 0 mm 3 m/s 761 mmHg 40%
    15:00 +24°C° 0 mm 3 m/s 761 mmHg 42%
    16:00 +23°C° 0 mm 4 m/s 761 mmHg 44%
    17:00 +20°C° 0 mm 4 m/s 761 mmHg 55%
    18:00 +17°C° 0 mm 5 m/s 761 mmHg 65%
    19:00 +15°C° 0 mm 5 m/s 761 mmHg 75%
    20:00 +15°C° 0,2 mm 5 m/s 761 mmHg 78%
    21:00 +14°C° 0,2 mm 4 m/s 761 mmHg 81%
    22:00 +14°C° 0,2 mm 4 m/s 762 mmHg 84%
    23:00 +13°C° 0,2 mm 4 m/s 761 mmHg 81%

    Poimâine, 24 August, Joi

    Timp Temperatura Precipitaţii Vânt Presiune Umiditate
    00:00 +12°C° 0,2 mm 4 m/s 761 mmHg 79%
    01:00 +11°C° 0,2 mm 4 m/s 761 mmHg 76%
    02:00 +11°C° 0 mm 4 m/s 761 mmHg 76%
    03:00 +9°C° 0 mm 5 m/s 761 mmHg 76%
    04:00 +9°C° 0 mm 5 m/s 761 mmHg 75%
    05:00 +8°C° 0 mm 5 m/s 761 mmHg 76%
    06:00 +8°C° 0 mm 4 m/s 761 mmHg 76%
    07:00 +8°C° 0 mm 4 m/s 762 mmHg 76%
    08:00 +11°C° 0 mm 4 m/s 762 mmHg 67%
    09:00 +14°C° 0 mm 4 m/s 762 mmHg 57%
    10:00 +16°C° 0 mm 5 m/s 762 mmHg 47%
    11:00 +17°C° 0,1 mm 5 m/s 761 mmHg 47%
    12:00 +19°C° 0,1 mm 6 m/s 761 mmHg 48%
    13:00 +19°C° 0,1 mm 6 m/s 760 mmHg 48%
    14:00 +17°C° 0,3 mm 7 m/s 761 mmHg 55%
    15:00 +16°C° 0,3 mm 7 m/s 761 mmHg 63%
    16:00 +15°C° 0,3 mm 7 m/s 761 mmHg 71%
    17:00 +14°C° 0,4 mm 7 m/s 761 mmHg 76%
    18:00 +13°C° 0,4 mm 6 m/s 762 mmHg 81%
    19:00 +11°C° 0,4 mm 6 m/s 763 mmHg 86%
    20:00 +10°C° 0,7 mm 6 m/s 763 mmHg 89%
    21:00 +10°C° 0,7 mm 6 m/s 764 mmHg 91%
    22:00 +10°C° 0,7 mm 6 m/s 764 mmHg 94%
    23:00 +9°C° 0,7 mm 6 m/s 764 mmHg 93%

    25 August, Vineri

    Timp Temperatura Precipitaţii Vânt Presiune Umiditate
    00:00 +9°C° 0,7 mm 6 m/s 764 mmHg 93%
    01:00 +9°C° 0,7 mm 5 m/s 764 mmHg 93%
    02:00 +9°C° 0,3 mm 6 m/s 764 mmHg 92%
    03:00 +8°C° 0,3 mm 6 m/s 764 mmHg 91%
    04:00 +8°C° 0,3 mm 6 m/s 764 mmHg 90%
    05:00 +8°C° 0,4 mm 6 m/s 765 mmHg 89%
    06:00 +8°C° 0,4 mm 6 m/s 765 mmHg 87%
    07:00 +8°C° 0,4 mm 6 m/s 766 mmHg 86%
    08:00 +10°C° 0,4 mm 6 m/s 766 mmHg 80%
    09:00 +11°C° 0,4 mm 6 m/s 766 mmHg 75%
    10:00 +14°C° 0,4 mm 6 m/s 766 mmHg 70%
    11:00 +14°C° 0,5 mm 6 m/s 766 mmHg 69%
    12:00 +15°C° 0,5 mm 6 m/s 766 mmHg 68%
    13:00 +15°C° 0,5 mm 7 m/s 765 mmHg 67%
    14:00 +15°C° 0,3 mm 6 m/s 765 mmHg 67%
    15:00 +15°C° 0,3 mm 6 m/s 765 mmHg 66%
    16:00 +15°C° 0,3 mm 6 m/s 765 mmHg 66%
    17:00 +14°C° 0 mm 5 m/s 766 mmHg 72%
    18:00 +12°C° 0 mm 5 m/s 767 mmHg 78%
    19:00 +11°C° 0 mm 4 m/s 767 mmHg 84%
    20:00 +11°C° 0,2 mm 4 m/s 768 mmHg 86%
    21:00 +11°C° 0,2 mm 4 m/s 768 mmHg 87%
    22:00 +11°C° 0,2 mm 3 m/s 768 mmHg 88%
    23:00 +10°C° 0,2 mm 4 m/s 768 mmHg 90%

    26 August, Sâmbătă

    Timp Temperatura Precipitaţii Vânt Presiune Umiditate
    00:00 +10°C° 0,2 mm 4 m/s 768 mmHg 92%
    01:00 +8°C° 0,2 mm 4 m/s 768 mmHg 94%
    02:00 +8°C° 0,1 mm 4 m/s 768 mmHg 94%
    03:00 +7°C° 0,1 mm 4 m/s 768 mmHg 94%
    04:00 +7°C° 0,1 mm 4 m/s 768 mmHg 95%
    05:00 +7°C° 0,1 mm 4 m/s 768 mmHg 94%
    06:00 +7°C° 0,1 mm 4 m/s 768 mmHg 93%
    07:00 +7°C° 0,1 mm 4 m/s 769 mmHg 92%
    08:00 +10°C° 0,1 mm 4 m/s 769 mmHg 83%
    09:00 +13°C° 0,1 mm 4 m/s 769 mmHg 74%
    10:00 +15°C° 0,1 mm 5 m/s 769 mmHg 66%
    11:00 +16°C° 0,1 mm 5 m/s 768 mmHg 61%
    12:00 +17°C° 0,1 mm 5 m/s 768 mmHg 56%
    13:00 +20°C° 0,1 mm 5 m/s 767 mmHg 51%
    14:00 +19°C° 0,1 mm 4 m/s 767 mmHg 53%
    15:00 +19°C° 0,1 mm 4 m/s 767 mmHg 56%
    16:00 +18°C° 0,1 mm 4 m/s 767 mmHg 58%
    17:00 +15°C° 0 mm 4 m/s 767 mmHg 68%
    18:00 +13°C° 0 mm 3 m/s 767 mmHg 79%
    19:00 +11°C° 0 mm 3 m/s 768 mmHg 89%
    20:00 +11°C° 0 mm 3 m/s 768 mmHg 91%
    21:00 +10°C° 0 mm 2 m/s 768 mmHg 92%
    22:00 +10°C° 0 mm 2 m/s 769 mmHg 93%
    23:00 +10°C° 0 mm 2 m/s 768 mmHg 94%

    27 August, Duminică

    Timp Temperatura Precipitaţii Vânt Presiune Umiditate
    00:00 +9°C° 0 mm 2 m/s 768 mmHg 95%
    01:00 +9°C° 0 mm 2 m/s 768 mmHg 96%
    02:00 +9°C° 0 mm 3 m/s 768 mmHg 95%
    03:00 +8°C° 0 mm 3 m/s 768 mmHg 95%
    04:00 +8°C° 0 mm 3 m/s 768 mmHg 95%
    05:00 +8°C° 0 mm 3 m/s 768 mmHg 94%
    06:00 +8°C° 0 mm 3 m/s 768 mmHg 93%
    07:00 +9°C° 0 mm 3 m/s 769 mmHg 92%
    08:00 +11°C° 0,1 mm 3 m/s 769 mmHg 82%
    09:00 +14°C° 0,1 mm 3 m/s 769 mmHg 73%
    10:00 +18°C° 0,1 mm 3 m/s 768 mmHg 63%
    11:00 +18°C° 0,3 mm 3 m/s 768 mmHg 62%
    12:00 +19°C° 0,3 mm 3 m/s 767 mmHg 62%
    13:00 +19°C° 0,3 mm 3 m/s 767 mmHg 61%
    14:00 +19°C° 0,3 mm 3 m/s 767 mmHg 65%
    15:00 +18°C° 0,3 mm 3 m/s 767 mmHg 69%
    16:00 +17°C° 0,3 mm 3 m/s 766 mmHg 73%
    17:00 +16°C° 0,3 mm 3 m/s 767 mmHg 79%
    18:00 +15°C° 0,3 mm 2 m/s 767 mmHg 85%
    19:00 +13°C° 0,3 mm 2 m/s 767 mmHg 91%
    20:00 +13°C° 0,4 mm 2 m/s 768 mmHg 92%
    21:00 +12°C° 0,4 mm 2 m/s 768 mmHg 92%
    22:00 +12°C° 0,4 mm 2 m/s 768 mmHg 93%
    23:00 +11°C° 0,3 mm 1 m/s 767 mmHg 94%
    Arată mai mult